Home   Weather   Turin   Past weeks

Flag for Italy Past Weather in Turin, Italy — Yesterday and Last 2 Weeks

Now
48 °F

Clear.


Feels Like: 46 °F
Forecast: 42 / 65 °F
Wind: 5 mph from West

Location: Torino / Bric Della Croce

Current Time: Apr 28, 2017 at 11:42:15 pm

Latest Report: Apr 28, 2017 at 10:55 pm


Visibility: 10 mi

Pressure: 29.92 "Hg

Humidity: 27%

Dew Point: 16 °F

Location of TurinLocation

Past Weather in Turin — Graph

°F

Turin Temperature Yesterday

Maximum temperature yesterday: 50 °F (at 12:55 pm)
Minimum temperature yesterday: 45 °F (at 11:55 pm)
Average temperature yesterday: 47 °F

High & Low Weather Summary for the Past Weeks

 TemperatureHumidityPressure
High66 °F (Apr 16, 3:55 pm)100% (Apr 14, 10:55 am)30.33 "Hg (Apr 14, 10:55 am)
Low34 °F (Apr 28, 5:55 am)10% (Apr 20, 11:55 pm)29.50 "Hg (Apr 28, 2:55 am)
Average51 °F63%29.95 "Hg
* Reported Apr 13 9:55 pm — Apr 28 9:55 pm, Turin, Weather by CustomWeather, © 2017

Note: Actual official high and low records may vary slightly from our data, if they occured in-between our weather recording intervals... More about our weather records

Advertising

Turin Weather History for the Previous 24 Hours

Scroll right to see more
 ConditionsComfort  
Time TempWeatherWind HumidityBarometerVisibility
9:55 pm
Fri, Apr 28
48 °FClear.2 mph32%29.92 "Hg10 mi
8:55 pm48 °FClear.6 mph34%29.86 "Hg10 mi
7:55 pm50 °FSunny.3 mph37%29.83 "Hg10 mi
6:55 pm50 °FScattered clouds.8 mph37%29.83 "HgN/A
5:55 pm50 °FScattered clouds.6 mph35%29.80 "HgN/A
4:55 pm52 °FSunny.3 mph44%29.77 "Hg10 mi
3:55 pm52 °FSunny.2 mph41%29.77 "Hg10 mi
2:55 pm50 °FSunny.5 mph58%29.77 "Hg10 mi
1:55 pm50 °FSunny.6 mph62%29.74 "Hg10 mi
12:55 pm46 °FSunny.12 mph71%29.71 "Hg10 mi
11:55 am45 °FSunny.14 mph76%29.71 "Hg10 mi
10:55 am43 °FSunny.5 mph87%29.68 "Hg10 mi
9:55 am41 °FScattered clouds.3 mph87%29.65 "HgN/A
8:55 am37 °FScattered clouds.2 mph93%29.65 "HgN/A
7:55 am37 °FScattered clouds.9 mph93%29.59 "HgN/A
6:55 am34 °FLight rain. Fog.14 mph100%29.53 "Hg0 mi
5:55 am34 °FLight rain. Fog.39 mph100%29.50 "Hg0 mi
4:55 am36 °FLight rain. Fog.26 mph100%29.50 "Hg0 mi
3:55 am37 °FLight rain. Fog.23 mph100%29.50 "Hg0 mi
2:55 am37 °FFog.26 mph100%29.50 "Hg0 mi
1:55 am41 °FFog.17 mph100%29.56 "Hg0 mi
12:55 am45 °FFog.5 mph100%29.59 "Hg0 mi
11:55 pm
Thu, Apr 27
45 °FFog.3 mph100%29.62 "Hg0 mi
Weather by CustomWeather, © 2017

See weather overviewHow to use our weather pages